Погода в Дубах

Россия / Орловская область     52°53′41″N   37°26′05″E
темп.,
°C
ветер,
м/с
пор.,
м/с
влажн.,
%
обл.,
%
осадки,
мм/ч
давл.,
гПа
погр.,
м
2 августа, пн
пн200:00+22ю33505 0.0 101129
03:00+20ю235597 0.0 101126
06:00+20ю367552 0.3 1010103
09:00+27ю57495 0.3 1009423
12:00+31ююз79325 0.0 10082872
15:00+32юз893073 0.0 10073254
18:00+31юз58335 0.0 10051322
21:00+21з121775100 0.9 1008633
3 августа, вт
вт300:00+21ююз81868100 0.8 1007669
03:00+19зюз71388100 0.8 1008503
06:00+18зюз2693100 0.0 1009392
09:00+21з347246 0.0 1010845
12:00+24з665429 0.6 10111635
15:00+23зсз6651100 0.6 10111637
18:00+24зсз564452 0.0 10111822
21:00+20сз3761100 0.0 1013294
4 августа, ср
ср400:00+16зсз34770 0.0 101555
03:00+15сз33756 0.0 101541
06:00+15сз23744 0.0 101658
09:00+20зсз33510 0.0 1017637
12:00+24зсз44370 0.0 10172215
15:00+25зсз553277 0.0 10162600
18:00+24зсз44357 0.0 10162328
21:00+18з2251100 0.0 101712
5 августа, чт
чт500:00+17св1157100 0.0 101811
03:00+15ююв11606 0.0 101811
06:00+16в126168 0.0 101812
09:00+21ююз2245100 0.0 1018487
12:00+17ссв2275100 0.4 101978
15:00+21всв3356100 0.4 1017144
18:00+21в355295 0.0 1016130
21:00+19св456299 0.1 101678
6 августа, пт
пт600:00+18в4860100 0.0 1015166
03:00+17ююв3557100 0.0 101472
06:00+18ю225884 0.0 101536
09:00+22ююз234895 0.0 1014419
12:00+24св0144100 0.0 1014184
15:00+28всв22359 0.0 1013602
18:00+29в343638 0.0 1012698
21:00+22в5115019 0.0 1013188